FW6819 Weather Reports


time (UTC)temp
F
wind
direction
speed
knots
gust
knots
rain 1hr
in
rain 24hr
in
rain mn
in
humidity
%
barometer
mb
20260505011733 68 124 0.0 0.0 0.00 0.00 0.00 51 1011.3
20260505011231 68 124 0.0 0.0 0.00 0.00 0.00 50 1011.3
20260505010726 68 124 0.0 0.9 0.00 0.00 0.00 49 1011.0
20260505010223 69 124 0.0 0.0 0.00 0.00 0.00 49 1011.1
20260505005719 69 124 0.0 0.9 0.00 0.00 0.00 48 1011.1
20260505005217 69 124 0.0 0.9 0.00 0.00 0.00 48 1011.0
20260505004714 70 124 0.0 0.0 0.00 0.00 0.00 47 1011.0
20260505004210 70 124 0.0 0.0 0.00 0.00 0.00 47 1010.9
20260505003707 70 124 0.0 0.0 0.00 0.00 0.00 46 1011.0
20260505003205 71 124 0.0 0.0 0.00 0.00 0.00 45 1011.0
20260505002701 71 124 0.0 0.0 0.00 0.00 0.00 46 1011.1
20260505002159 71 123 0.0 0.0 0.00 0.00 0.00 45 1010.9
20260505001656 71 121 0.0 0.0 0.00 0.00 0.00 45 1011.0
20260505001153 71 120 0.0 0.0 0.00 0.00 0.00 44 1011.0
20260505000650 72 117 0.9 0.9 0.00 0.00 0.00 43 1010.9
20260505000148 72 115 0.0 0.0 0.00 0.00 0.00 44 1011.1
20260504235644 72 113 0.0 0.0 0.00 0.00 0.00 44 1011.0
20260504235141 72 113 0.9 1.7 0.00 0.00 0.00 43 1010.9
20260504234638 72 112 0.9 1.7 0.00 0.00 0.00 43 1010.7
20260504234136 72 108 0.0 0.0 0.00 0.00 0.00 43 1010.8
20260504233631 73 106 0.0 0.9 0.00 0.00 0.00 42 1010.9
20260504233127 74 103 3.5 5.2 0.00 0.00 0.00 41 1010.7
20260504232625 75 98 0.0 0.0 0.00 0.00 0.00 40 1010.8
20260504232122 75 90 0.0 0.0 0.00 0.00 0.00 41 1010.7
20260504231618 75 70 0.9 0.9 0.00 0.00 0.00 41 1010.6
20260504231115 76 33 0.9 1.7 0.00 0.00 0.00 39 1010.7
20260504230611 75 4 0.0 0.9 0.00 0.00 0.00 40 1010.7
20260504230110 76 346 1.7 1.7 0.00 0.00 0.00 39 1010.8
20260504225607 76 330 0.0 0.0 0.00 0.00 0.00 39 1010.7
20260504225104 76 322 0.9 1.7 0.00 0.00 0.00 39 1010.7
20260504224600 77 315 2.6 5.2 0.00 0.00 0.00 38 1010.6
20260504224057 77 317 0.9 1.7 0.00 0.00 0.00 38 1010.5
20260504223554 77 317 0.9 0.9 0.00 0.00 0.00 38 1010.9
20260504223050 77 317 3.5 4.3 0.00 0.00 0.00 36 1010.9
20260504222547 77 317 0.9 1.7 0.00 0.00 0.00 36 1010.6
20260504222044 78 319 1.7 1.7 0.00 0.00 0.00 37 1010.6
20260504221542 79 321 0.9 2.6 0.00 0.00 0.00 36 1010.7
20260504221038 78 317 0.0 0.0 0.00 0.00 0.00 35 1010.4
20260504220535 79 315 3.5 5.2 0.00 0.00 0.00 35 1010.5
20260504220032 79 317 1.7 2.6 0.00 0.00 0.00 35 1010.5
20260504215528 79 317 0.0 0.0 0.00 0.00 0.00 37 1010.4
20260504215026 78 313 0.0 0.9 0.00 0.00 0.00 36 1010.5
20260504214522 79 310 1.7 2.6 0.00 0.00 0.00 35 1010.5
20260504214018 78 309 0.0 0.0 0.00 0.00 0.00 34 1010.7
20260504213514 79 308 4.3 6.1 0.00 0.00 0.00 35 1010.7
20260504213012 79 309 0.9 0.9 0.00 0.00 0.00 34 1010.6
20260504212508 78 307 3.5 4.3 0.00 0.00 0.00 34 1010.7
20260504212005 79 307 3.5 6.1 0.00 0.00 0.00 35 1010.6
20260504211502 80 310 0.9 1.7 0.00 0.00 0.00 34 1010.5
20260504210959 79 311 0.9 1.7 0.00 0.00 0.00 36 1010.6
20260504210456 78 307 0.9 1.7 0.00 0.00 0.00 36 1010.6
20260504205953 79 310 7.8 8.7 0.00 0.00 0.00 34 1010.8
20260504205450 78 312 0.9 1.7 0.00 0.00 0.00 35 1010.6
20260504204948 79 313 0.0 0.0 0.00 0.00 0.00 36 1010.6
20260504204446 78 310 0.9 1.7 0.00 0.00 0.00 35 1010.9
20260504203945 78 309 0.0 0.9 0.00 0.00 0.00 36 1010.9
20260504203443 78 307 1.7 2.6 0.00 0.00 0.00 34 1011.0
20260504202938 78 305 3.5 5.2 0.00 0.00 0.00 37 1011.2
20260504202435 77 304 4.3 6.1 0.00 0.00 0.00 36 1011.0
20260504201932 78 308 0.9 1.7 0.00 0.00 0.00 35 1011.2
20260504201429 77 307 0.9 2.6 0.00 0.00 0.00 35 1011.2
20260504200927 77 307 2.6 2.6 0.00 0.00 0.00 35 1011.1
20260504200423 78 310 5.2 6.1 0.00 0.00 0.00 36 1011.3
20260504195920 77 310 0.0 0.9 0.00 0.00 0.00 35 1011.3
20260504195416 78 312 0.9 0.9 0.00 0.00 0.00 36 1011.5
20260504194913 78 309 0.9 1.7 0.00 0.00 0.00 35 1011.6
20260504194408 77 307 0.9 0.9 0.00 0.00 0.00 38 1011.5
20260504193905 78 306 2.6 5.2 0.00 0.00 0.00 36 1011.5
20260504193402 78 305 1.7 1.7 0.00 0.00 0.00 35 1011.5
20260504192901 78 302 1.7 1.7 0.00 0.00 0.00 36 1012.0
20260504192358 76 303 2.6 2.6 0.00 0.00 0.00 37 1011.8
20260504191856 76 303 1.7 2.6 0.00 0.00 0.00 37 1011.9
20260504191354 76 303 6.1 7.0 0.00 0.00 0.00 37 1011.9
20260504190849 76 303 6.1 7.0 0.00 0.00 0.00 36 1012.0
20260504190345 77 306 4.3 5.2 0.00 0.00 0.00 37 1012.1
20260504185842 76 305 1.7 2.6 0.00 0.00 0.00 36 1012.2
20260504185339 75 303 1.7 2.6 0.00 0.00 0.00 39 1012.3
20260504184835 75 303 5.2 7.0 0.00 0.00 0.00 38 1012.5
20260504184331 75 302 5.2 6.1 0.00 0.00 0.00 38 1012.5
20260504183827 75 303 4.3 7.0 0.00 0.00 0.00 38 1012.6
20260504183324 74 302 4.3 6.1 0.00 0.00 0.00 39 1012.7
20260504182822 74 302 7.8 11.3 0.00 0.00 0.00 38 1012.9
20260504182319 75 304 0.9 2.6 0.00 0.00 0.00 40 1012.9
20260504181816 74 305 2.6 4.3 0.00 0.00 0.00 39 1012.6
20260504181314 74 305 2.6 4.3 0.00 0.00 0.00 39 1012.8
20260504180813 75 306 2.6 4.3 0.00 0.00 0.00 38 1013.1
20260504180311 74 304 2.6 4.3 0.00 0.00 0.00 39 1013.2
20260504175808 73 303 4.3 6.1 0.00 0.00 0.00 38 1013.3
20260504175305 74 303 1.7 2.6 0.00 0.00 0.00 39 1013.2
20260504174803 74 304 1.7 1.7 0.00 0.00 0.00 37 1013.2
20260504174300 73 301 4.3 6.1 0.00 0.00 0.00 38 1013.1
20260504173757 73 300 5.2 7.8 0.00 0.00 0.00 38 1013.4
20260504173254 73 302 3.5 4.3 0.00 0.00 0.00 38 1013.3
20260504172750 73 300 1.7 2.6 0.00 0.00 0.00 37 1013.7
20260504172247 73 298 4.3 5.2 0.00 0.00 0.00 38 1013.5
20260504171743 73 299 2.6 4.3 0.00 0.00 0.00 37 1013.5
20260504171240 72 298 0.9 1.7 0.00 0.00 0.00 39 1013.8
20260504170737 72 295 1.7 2.6 0.00 0.00 0.00 38 1013.8
20260504170235 72 294 2.6 5.2 0.00 0.00 0.00 37 1013.8
20260504160153 72 139 1.7 2.6 0.00 0.00 0.00 38 1014.6
20260504151121 69 121 3.5 4.3 0.00 0.00 0.00 38 1014.6
20260504150618 69 121 0.0 0.9 0.00 0.00 0.00 41 1015.0
20260504150115 69 120 0.0 0.9 0.00 0.00 0.00 40 1014.8
20260504141044 63 124 3.5 5.2 0.00 0.00 0.00 51 1015.3
20260504140540 62 124 1.7 2.6 0.00 0.00 0.00 51 1015.4
20260504130504 58 124 4.3 5.2 0.00 0.00 0.00 57 1015.6
20260504110351 49 124 0.0 0.0 0.00 0.00 0.00 72 1016.3
20260504100309 50 124 0.0 0.0 0.00 0.00 0.00 71 1016.4
20260504081702 48 124 0.0 0.0 0.00 0.00 0.00 75 1016.3
20260504081159 48 124 0.0 0.0 0.00 0.00 0.00 76 1016.4
20260504080655 48 124 0.0 0.0 0.00 0.00 0.00 77 1016.2
20260504080152 48 124 0.0 0.0 0.00 0.00 0.00 76 1016.4
20260504070120 45 124 0.0 0.0 0.00 0.00 0.00 81 1016.5
20260504050508 43 124 0.0 0.0 0.00 0.00 0.00 80 1016.6
20260504050005 43 124 0.0 0.0 0.00 0.00 0.00 80 1016.7
20260504045501 42 124 0.0 0.0 0.00 0.00 0.00 79 1016.6
20260504044957 42 124 0.0 0.0 0.00 0.00 0.00 81 1016.6
20260504044455 42 124 0.0 0.0 0.00 0.00 0.00 82 1016.5
20260504043952 41 124 0.0 0.0 0.00 0.00 0.00 83 1016.5
20260504043449 41 124 0.0 0.0 0.00 0.00 0.00 82 1016.7
20260504042946 41 124 0.0 0.0 0.00 0.00 0.00 82 1016.7
20260504042443 41 124 0.0 0.0 0.00 0.00 0.00 81 1016.4
20260504041940 41 124 0.0 0.0 0.00 0.00 0.00 81 1016.5
20260504041436 41 124 0.0 0.0 0.00 0.00 0.00 81 1016.5
20260504040932 41 124 0.0 0.0 0.00 0.00 0.00 81 1016.5
20260504040430 42 124 0.0 0.0 0.00 0.00 0.00 81 1016.7
20260504035925 42 124 0.0 0.0 0.00 0.00 0.00 81 1016.6
20260504035423 42 124 0.0 0.0 0.00 0.00 0.00 81 1016.8
20260504034919 41 124 0.0 0.0 0.00 0.00 0.00 83 1016.6
20260504034417 41 124 0.0 0.0 0.00 0.00 0.00 82 1016.4
20260504033914 41 124 0.0 0.0 0.00 0.00 0.00 82 1016.5
20260504033412 41 124 0.0 0.0 0.00 0.00 0.00 82 1016.6
20260504032909 42 124 0.0 0.0 0.00 0.00 0.00 82 1016.5
20260504032405 42 124 0.0 0.0 0.00 0.00 0.00 82 1016.5
20260504031902 42 124 0.0 0.0 0.00 0.00 0.00 81 1016.3
20260504031359 42 124 0.0 0.0 0.00 0.00 0.00 80 1016.4
20260504030855 42 124 0.0 0.0 0.00 0.00 0.00 79 1016.3
20260504030353 42 124 0.0 0.0 0.00 0.00 0.00 79 1016.3
20260504025849 43 124 0.0 0.0 0.00 0.00 0.00 77 1016.3
20260504025346 43 124 0.0 0.0 0.00 0.00 0.00 76 1016.2
20260504024843 44 124 0.0 0.0 0.00 0.00 0.00 76 1016.2
20260504024339 44 124 0.0 0.0 0.00 0.00 0.00 76 1016.1
20260504023836 44 124 0.0 0.0 0.00 0.00 0.00 75 1016.2
20260504023333 44 124 0.0 0.0 0.00 0.00 0.00 75 1016.0
20260504022828 43 124 0.0 0.0 0.00 0.00 0.00 76 1016.0
20260504022326 44 124 0.0 0.0 0.00 0.00 0.00 75 1016.1
20260504021822 44 124 0.0 0.0 0.00 0.00 0.00 74 1016.2
20260504021320 44 124 0.0 0.0 0.00 0.00 0.00 73 1016.2
20260504020816 45 124 0.0 0.0 0.00 0.00 0.00 73 1016.1
20260504020313 45 124 0.0 0.0 0.00 0.00 0.00 72 1016.2
20260504015809 45 124 0.0 0.0 0.00 0.00 0.00 71 1015.9
20260504015305 46 124 0.0 0.0 0.00 0.00 0.00 69 1015.8
20260504014801 46 124 0.0 0.0 0.00 0.00 0.00 68 1016.0
20260504014258 46 124 0.0 0.0 0.00 0.00 0.00 67 1016.0
20260504013755 47 124 0.0 0.0 0.00 0.00 0.00 65 1016.0
20260504013253 47 124 0.0 0.0 0.00 0.00 0.00 65 1015.9
20260504012749 48 124 0.0 0.0 0.00 0.00 0.00 64 1015.8
20260504012247 48 124 0.0 0.0 0.00 0.00 0.00 64 1015.8